| time (UTC) | temp F | wind direction | speed MPH | gust MPH | rain 1hr in | rain 24hr in | rain mn in | humidity % | barometer mb |
| 20260510194225 | 84 | 51 | 7.0 | 14.0 | 0.00 | 0.00 | 0.00 | 79 | 1013.0 |
| 20260510193731 | 83 | 93 | 7.0 | 14.0 | 0.00 | 0.00 | 0.00 | 79 | 1013.0 |
| 20260510193231 | 83 | 89 | 8.0 | 18.0 | 0.00 | 0.00 | 0.00 | 80 | 1013.0 |
| 20260510192728 | 83 | 97 | 9.0 | 18.0 | 0.00 | 0.00 | 0.00 | 80 | 1013.0 |
| 20260510192227 | 83 | 94 | 11.0 | 18.0 | 0.00 | 0.00 | 0.00 | 80 | 1013.0 |
| 20260510191717 | 82 | 93 | 13.0 | 18.0 | 0.00 | 0.00 | 0.00 | 80 | 1012.9 |
| 20260510191213 | 82 | 86 | 14.0 | 17.0 | 0.00 | 0.00 | 0.00 | 80 | 1013.0 |
| 20260510190720 | 83 | 88 | 14.0 | 17.0 | 0.00 | 0.00 | 0.00 | 80 | 1013.0 |
| 20260510190212 | 83 | 117 | 13.0 | 16.0 | 0.00 | 0.00 | 0.00 | 80 | 1013.0 |
| 20260510185713 | 83 | 98 | 12.0 | 16.0 | 0.00 | 0.00 | 0.00 | 80 | 1013.1 |
| 20260510185215 | 83 | 95 | 12.0 | 16.0 | 0.00 | 0.00 | 0.00 | 80 | 1013.0 |
| 20260510184654 | 83 | 81 | 12.0 | 16.0 | 0.00 | 0.00 | 0.00 | 80 | 1013.0 |
| 20260510184149 | 83 | 88 | 12.0 | 16.0 | 0.00 | 0.00 | 0.00 | 80 | 1012.9 |
| 20260510183654 | 83 | 100 | 11.0 | 15.0 | 0.00 | 0.00 | 0.00 | 80 | 1012.8 |
| 20260510183131 | 83 | 80 | 11.0 | 15.0 | 0.00 | 0.00 | 0.00 | 80 | 1013.0 |
| 20260510182625 | 83 | 96 | 11.0 | 14.0 | 0.00 | 0.00 | 0.00 | 80 | 1013.0 |
| 20260510182106 | 83 | 107 | 10.0 | 14.0 | 0.00 | 0.00 | 0.00 | 80 | 1013.1 |
| 20260510181609 | 83 | 124 | 8.0 | 12.0 | 0.00 | 0.00 | 0.00 | 80 | 1013.1 |
| 20260510181102 | 83 | 81 | 9.0 | 14.0 | 0.00 | 0.00 | 0.00 | 81 | 1013.2 |
| 20260510180602 | 83 | 98 | 10.0 | 14.0 | 0.00 | 0.00 | 0.00 | 81 | 1013.1 |
| 20260510180055 | 83 | 94 | 10.0 | 15.0 | 0.00 | 0.00 | 0.00 | 81 | 1013.1 |
| 20260510175546 | 83 | 94 | 11.0 | 15.0 | 0.00 | 0.00 | 0.00 | 81 | 1013.1 |
| 20260510175030 | 83 | 78 | 11.0 | 16.0 | 0.00 | 0.00 | 0.00 | 81 | 1013.3 |
| 20260510174519 | 83 | 103 | 11.0 | 16.0 | 0.00 | 0.00 | 0.00 | 81 | 1013.3 |
| 20260510173350 | 83 | 98 | 11.0 | 16.0 | 0.00 | 0.00 | 0.00 | 80 | 1013.4 |
| 20260510172852 | 83 | 2 | 10.0 | 16.0 | 0.00 | 0.00 | 0.00 | 81 | 1013.5 |
| 20260510172343 | 83 | 98 | 10.0 | 16.0 | 0.00 | 0.00 | 0.00 | 81 | 1013.6 |
| 20260510171841 | 83 | 86 | 11.0 | 16.0 | 0.00 | 0.00 | 0.00 | 81 | 1013.6 |
| 20260510171335 | 83 | 84 | 11.0 | 16.0 | 0.00 | 0.00 | 0.00 | 81 | 1013.7 |
| 20260510170819 | 83 | 86 | 11.0 | 15.0 | 0.00 | 0.00 | 0.00 | 81 | 1013.7 |
| 20260510165632 | 83 | 78 | 11.0 | 15.0 | 0.00 | 0.00 | 0.00 | 81 | 1013.6 |
| 20260510164445 | 83 | 98 | 10.0 | 15.0 | 0.00 | 0.00 | 0.00 | 81 | 1013.8 |
| 20260510163258 | 83 | 93 | 9.0 | 15.0 | 0.00 | 0.00 | 0.00 | 82 | 1013.8 |
| 20260510162804 | 83 | 105 | 8.0 | 13.0 | 0.00 | 0.00 | 0.00 | 82 | 1013.8 |
| 20260510162258 | 83 | 43 | 8.0 | 13.0 | 0.00 | 0.00 | 0.00 | 82 | 1013.8 |
| 20260510161738 | 83 | 74 | 8.0 | 12.0 | 0.00 | 0.00 | 0.00 | 82 | 1013.9 |
| 20260510161222 | 83 | 80 | 7.0 | 12.0 | 0.00 | 0.00 | 0.00 | 82 | 1013.9 |
| 20260510160718 | 83 | 73 | 7.0 | 12.0 | 0.00 | 0.00 | 0.00 | 82 | 1013.9 |
| 20260510155541 | 82 | 84 | 8.0 | 13.0 | 0.00 | 0.00 | 0.00 | 83 | 1014.1 |
| 20260510154412 | 82 | 90 | 10.0 | 13.0 | 0.00 | 0.00 | 0.00 | 83 | 1013.9 |
| 20260510153918 | 82 | 86 | 9.0 | 13.0 | 0.00 | 0.00 | 0.00 | 83 | 1013.9 |
| 20260510153402 | 82 | 103 | 8.0 | 13.0 | 0.00 | 0.00 | 0.00 | 83 | 1013.9 |
| 20260510152232 | 82 | 74 | 9.0 | 14.0 | 0.00 | 0.00 | 0.00 | 84 | 1013.9 |
| 20260510151732 | 82 | 83 | 9.0 | 14.0 | 0.00 | 0.00 | 0.00 | 84 | 1014.1 |
| 20260510151217 | 82 | 86 | 9.0 | 14.0 | 0.00 | 0.00 | 0.00 | 84 | 1014.1 |
| 20260510150702 | 82 | 86 | 9.0 | 12.0 | 0.00 | 0.00 | 0.00 | 85 | 1014.2 |
| 20260510150208 | 82 | 85 | 8.0 | 12.0 | 0.00 | 0.00 | 0.00 | 85 | 1014.2 |
| 20260510145656 | 81 | 105 | 8.0 | 12.0 | 0.00 | 0.00 | 0.00 | 86 | 1014.2 |
| 20260510145141 | 81 | 85 | 7.0 | 11.0 | 0.00 | 0.00 | 0.00 | 86 | 1014.2 |
| 20260510144637 | 81 | 80 | 7.0 | 11.0 | 0.00 | 0.00 | 0.00 | 87 | 1014.1 |
| 20260510144122 | 81 | 93 | 6.0 | 10.0 | 0.00 | 0.00 | 0.00 | 87 | 1014.1 |
| 20260510143621 | 80 | 105 | 5.0 | 10.0 | 0.00 | 0.00 | 0.00 | 87 | 1014.1 |
| 20260510143127 | 80 | 73 | 5.0 | 10.0 | 0.00 | 0.00 | 0.00 | 87 | 1014.1 |
| 20260510142625 | 80 | 84 | 5.0 | 10.0 | 0.00 | 0.00 | 0.00 | 87 | 1014.1 |
| 20260510142127 | 80 | 81 | 5.0 | 10.0 | 0.00 | 0.00 | 0.00 | 87 | 1013.9 |
| 20260510141615 | 80 | 82 | 5.0 | 10.0 | 0.00 | 0.00 | 0.00 | 87 | 1013.9 |
| 20260510141100 | 80 | 73 | 5.0 | 10.0 | 0.00 | 0.00 | 0.00 | 87 | 1013.7 |
| 20260510140606 | 80 | 48 | 6.0 | 10.0 | 0.00 | 0.00 | 0.00 | 87 | 1013.8 |
| 20260510140059 | 80 | 82 | 5.0 | 9.0 | 0.00 | 0.00 | 0.00 | 87 | 1013.6 |
| 20260510134927 | 80 | 101 | 5.0 | 10.0 | 0.00 | 0.00 | 0.00 | 87 | 1013.3 |
| 20260510133750 | 79 | 105 | 6.0 | 10.0 | 0.00 | 0.00 | 0.00 | 87 | 1013.0 |
| 20260510133240 | 80 | 97 | 6.0 | 10.0 | 0.00 | 0.00 | 0.00 | 88 | 1013.0 |
| 20260510132747 | 80 | 89 | 6.0 | 10.0 | 0.00 | 0.00 | 0.00 | 88 | 1012.8 |
| 20260510132227 | 79 | 87 | 6.0 | 10.0 | 0.00 | 0.00 | 0.00 | 88 | 1012.6 |
| 20260510131720 | 79 | 79 | 7.0 | 10.0 | 0.00 | 0.00 | 0.00 | 88 | 1012.5 |
| 20260510131226 | 79 | 103 | 7.0 | 10.0 | 0.00 | 0.00 | 0.00 | 88 | 1012.4 |
| 20260510130708 | 79 | 106 | 6.0 | 9.0 | 0.00 | 0.00 | 0.00 | 88 | 1012.4 |
| 20260510130216 | 79 | 100 | 4.0 | 8.0 | 0.00 | 0.00 | 0.00 | 88 | 1012.2 |
| 20260510125656 | 79 | 92 | 4.0 | 6.0 | 0.00 | 0.00 | 0.00 | 88 | 1012.1 |
| 20260510125141 | 79 | 103 | 3.0 | 5.0 | 0.00 | 0.00 | 0.00 | 88 | 1012.0 |
| 20260510124851 | 79 | 86 | 2.0 | 5.0 | 0.00 | 0.00 | 0.00 | 88 | 1011.8 |
| 20260510123715 | 79 | 130 | 1.0 | 5.0 | 0.00 | 0.00 | 0.00 | 88 | 1011.8 |
| 20260510123208 | 79 | 161 | 2.0 | 5.0 | 0.00 | 0.00 | 0.00 | 88 | 1011.8 |
| 20260510122713 | 79 | 166 | 1.0 | 4.0 | 0.00 | 0.00 | 0.00 | 88 | 1011.7 |
| 20260510122217 | 79 | 171 | 0.0 | 4.0 | 0.00 | 0.00 | 0.00 | 88 | 1011.7 |
| 20260510121714 | 79 | 175 | 0.0 | 4.0 | 0.00 | 0.00 | 0.00 | 88 | 1011.6 |
| 20260510121216 | 79 | 157 | 2.0 | 6.0 | 0.00 | 0.00 | 0.00 | 88 | 1011.6 |
| 20260510120711 | 79 | 159 | 3.0 | 6.0 | 0.00 | 0.00 | 0.00 | 88 | 1011.4 |
| 20260510120152 | 79 | 152 | 3.0 | 10.0 | 0.00 | 0.00 | 0.00 | 88 | 1011.3 |
| 20260510115650 | 78 | 152 | 3.0 | 10.0 | 0.00 | 0.00 | 0.00 | 88 | 1011.3 |
| 20260510115133 | 79 | 116 | 4.0 | 10.0 | 0.00 | 0.00 | 0.00 | 88 | 1011.2 |
| 20260510114630 | 78 | 151 | 5.0 | 10.0 | 0.00 | 0.00 | 0.00 | 88 | 1011.2 |
| 20260510114109 | 78 | 150 | 4.0 | 9.0 | 0.00 | 0.00 | 0.00 | 87 | 1011.1 |
| 20260510113616 | 78 | 150 | 4.0 | 9.0 | 0.00 | 0.00 | 0.00 | 87 | 1011.1 |
| 20260510113118 | 78 | 146 | 4.0 | 10.0 | 0.00 | 0.00 | 0.00 | 87 | 1011.1 |
| 20260510112558 | 78 | 196 | 5.0 | 10.0 | 0.00 | 0.00 | 0.00 | 87 | 1011.0 |
| 20260510112101 | 78 | 146 | 6.0 | 13.0 | 0.00 | 0.00 | 0.00 | 87 | 1011.0 |
| 20260510111558 | 78 | 2 | 6.0 | 13.0 | 0.00 | 0.00 | 0.00 | 87 | 1011.0 |
| 20260510111040 | 78 | 173 | 8.0 | 13.0 | 0.00 | 0.00 | 0.00 | 87 | 1011.0 |
| 20260510110539 | 78 | 199 | 8.0 | 13.0 | 0.00 | 0.00 | 0.00 | 87 | 1010.8 |
| 20260510110025 | 78 | 175 | 8.0 | 12.0 | 0.00 | 0.00 | 0.00 | 87 | 1010.6 |
| 20260510105503 | 78 | 2 | 8.0 | 12.0 | 0.00 | 0.00 | 0.00 | 87 | 1010.4 |
| 20260510104955 | 78 | 180 | 8.0 | 13.0 | 0.00 | 0.00 | 0.00 | 87 | 1010.4 |
| 20260510104445 | 78 | 191 | 8.0 | 13.0 | 0.00 | 0.00 | 0.00 | 87 | 1010.3 |
| 20260510103928 | 78 | 2 | 8.0 | 13.0 | 0.00 | 0.00 | 0.00 | 87 | 1010.1 |
| 20260510103415 | 78 | 199 | 8.0 | 13.0 | 0.00 | 0.00 | 0.00 | 87 | 1010.2 |
| 20260510102916 | 78 | 181 | 9.0 | 12.0 | 0.00 | 0.00 | 0.00 | 87 | 1010.2 |
| 20260510102417 | 78 | 152 | 9.0 | 14.0 | 0.00 | 0.00 | 0.00 | 87 | 1010.1 |
| 20260510101915 | 78 | 151 | 9.0 | 14.0 | 0.00 | 0.00 | 0.00 | 87 | 1010.0 |
| 20260510101400 | 78 | 185 | 10.0 | 14.0 | 0.00 | 0.00 | 0.00 | 87 | 1010.0 |
| 20260510100855 | 78 | 194 | 10.0 | 14.0 | 0.00 | 0.00 | 0.00 | 87 | 1010.0 |
| 20260510100340 | 78 | 2 | 10.0 | 14.0 | 0.00 | 0.00 | 0.00 | 87 | 1010.1 |
| 20260510095832 | 78 | 2 | 10.0 | 14.0 | 0.00 | 0.00 | 0.00 | 87 | 1010.0 |
| 20260510095317 | 78 | 2 | 10.0 | 14.0 | 0.00 | 0.00 | 0.00 | 87 | 1010.0 |
| 20260510094132 | 78 | 190 | 10.0 | 13.0 | 0.00 | 0.00 | 0.00 | 87 | 1010.0 |
| 20260510093619 | 78 | 2 | 10.0 | 15.0 | 0.00 | 0.00 | 0.00 | 87 | 1010.0 |
| 20260510093125 | 78 | 183 | 10.0 | 15.0 | 0.00 | 0.00 | 0.00 | 87 | 1010.0 |
| 20260510092604 | 78 | 2 | 11.0 | 15.0 | 0.00 | 0.00 | 0.00 | 87 | 1010.0 |
| 20260510092045 | 78 | 191 | 11.0 | 15.0 | 0.00 | 0.00 | 0.00 | 87 | 1010.1 |
| 20260510091536 | 78 | 2 | 11.0 | 16.0 | 0.00 | 0.00 | 0.00 | 87 | 1010.1 |
| 20260510091020 | 78 | 188 | 11.0 | 16.0 | 0.00 | 0.00 | 0.00 | 87 | 1010.1 |
| 20260510090517 | 78 | 2 | 11.0 | 16.0 | 0.00 | 0.00 | 0.00 | 87 | 1010.1 |
| 20260510090000 | 78 | 161 | 11.0 | 16.0 | 0.00 | 0.00 | 0.00 | 87 | 1010.0 |
| 20260510085452 | 78 | 171 | 11.0 | 15.0 | 0.00 | 0.00 | 0.00 | 87 | 1010.0 |
| 20260510084931 | 78 | 181 | 11.0 | 15.0 | 0.00 | 0.00 | 0.00 | 87 | 1010.0 |
| 20260510084438 | 78 | 139 | 11.0 | 14.0 | 0.00 | 0.00 | 0.00 | 87 | 1010.1 |
| 20260510083925 | 78 | 170 | 11.0 | 17.0 | 0.00 | 0.00 | 0.00 | 87 | 1010.1 |
| 20260510083407 | 78 | 171 | 12.0 | 17.0 | 0.00 | 0.00 | 0.00 | 87 | 1010.0 |
| 20260510082850 | 78 | 197 | 11.0 | 17.0 | 0.00 | 0.00 | 0.00 | 87 | 1010.0 |
| 20260510082352 | 78 | 186 | 11.0 | 17.0 | 0.00 | 0.00 | 0.00 | 87 | 1009.9 |
| 20260510081229 | 78 | 136 | 11.0 | 16.0 | 0.00 | 0.00 | 0.00 | 87 | 1010.0 |
| 20260510080056 | 78 | 221 | 12.0 | 17.0 | 0.00 | 0.00 | 0.00 | 87 | 1009.9 |
| 20260510074933 | 78 | 2 | 12.0 | 18.0 | 0.00 | 0.00 | 0.00 | 87 | 1009.7 |
| 20260510074429 | 78 | 179 | 13.0 | 18.0 | 0.00 | 0.00 | 0.00 | 87 | 1009.8 |
| 20260510073304 | 78 | 185 | 12.0 | 17.0 | 0.00 | 0.00 | 0.00 | 86 | 1009.8 |
| 20260510071520 | 78 | 180 | 9.0 | 14.0 | 0.00 | 0.00 | 0.00 | 86 | 1010.0 |
| 20260510070401 | 78 | 176 | 11.0 | 15.0 | 0.00 | 0.00 | 0.00 | 86 | 1010.1 |
| 20260510065849 | 78 | 185 | 11.0 | 15.0 | 0.00 | 0.00 | 0.00 | 86 | 1010.0 |
| 20260510065344 | 78 | 158 | 10.0 | 15.0 | 0.00 | 0.00 | 0.00 | 86 | 1010.1 |
| 20260510064824 | 78 | 2 | 10.0 | 15.0 | 0.00 | 0.00 | 0.00 | 86 | 1010.3 |
| 20260510064320 | 78 | 184 | 9.0 | 15.0 | 0.00 | 0.00 | 0.00 | 86 | 1010.2 |
| 20260510063817 | 78 | 189 | 9.0 | 15.0 | 0.00 | 0.00 | 0.00 | 86 | 1010.3 |
| 20260510063320 | 78 | 2 | 10.0 | 16.0 | 0.00 | 0.00 | 0.00 | 86 | 1010.3 |
| 20260510062816 | 78 | 146 | 9.0 | 16.0 | 0.00 | 0.00 | 0.00 | 86 | 1010.4 |
| 20260510062323 | 78 | 168 | 10.0 | 16.0 | 0.00 | 0.00 | 0.00 | 86 | 1010.5 |
| 20260510061156 | 78 | 165 | 10.0 | 17.0 | 0.00 | 0.00 | 0.00 | 86 | 1010.4 |
| 20260510060638 | 78 | 175 | 10.0 | 17.0 | 0.00 | 0.00 | 0.00 | 86 | 1010.4 |
| 20260510060118 | 78 | 161 | 10.0 | 17.0 | 0.00 | 0.00 | 0.00 | 86 | 1010.4 |
| 20260510055621 | 78 | 165 | 10.0 | 17.0 | 0.00 | 0.00 | 0.00 | 86 | 1010.5 |
| 20260510055112 | 78 | 182 | 10.0 | 15.0 | 0.00 | 0.00 | 0.00 | 86 | 1010.4 |
| 20260510053259 | 78 | 155 | 7.0 | 14.0 | 0.00 | 0.00 | 0.00 | 86 | 1010.6 |
| 20260510052118 | 78 | 237 | 3.0 | 10.0 | 0.00 | 0.00 | 0.00 | 86 | 1010.7 |
| 20260510051559 | 78 | 125 | 4.0 | 9.0 | 0.00 | 0.00 | 0.00 | 86 | 1010.7 |
| 20260510051036 | 78 | 273 | 6.0 | 15.0 | 0.00 | 0.00 | 0.00 | 86 | 1010.8 |
| 20260510050532 | 79 | 218 | 8.0 | 15.0 | 0.00 | 0.00 | 0.00 | 86 | 1010.7 |
| 20260510050021 | 79 | 129 | 9.0 | 20.0 | 0.00 | 0.00 | 0.00 | 86 | 1010.8 |
| 20260510045502 | 78 | 63 | 11.0 | 21.0 | 0.00 | 0.00 | 0.00 | 86 | 1011.0 |
| 20260510043659 | 79 | 96 | 15.0 | 21.0 | 0.00 | 0.00 | 0.00 | 86 | 1011.1 |
| 20260510043139 | 79 | 93 | 15.0 | 18.0 | 0.00 | 0.00 | 0.00 | 86 | 1011.0 |
| 20260510042617 | 79 | 80 | 14.0 | 18.0 | 0.00 | 0.00 | 0.00 | 86 | 1011.1 |
| 20260510042108 | 79 | 100 | 13.0 | 16.0 | 0.00 | 0.00 | 0.00 | 86 | 1011.1 |
| 20260510041546 | 79 | 89 | 12.0 | 16.0 | 0.00 | 0.00 | 0.00 | 86 | 1011.2 |
| 20260510040430 | 79 | 105 | 9.0 | 15.0 | 0.00 | 0.00 | 0.00 | 86 | 1011.4 |
| 20260510035918 | 79 | 115 | 10.0 | 15.0 | 0.00 | 0.00 | 0.00 | 85 | 1011.1 |
| 20260510035418 | 79 | 71 | 11.0 | 15.0 | 0.00 | 0.00 | 0.00 | 85 | 1011.2 |
| 20260510034918 | 79 | 78 | 11.0 | 14.0 | 0.00 | 0.00 | 0.00 | 85 | 1011.3 |
| 20260510034412 | 79 | 100 | 11.0 | 14.0 | 0.00 | 0.00 | 0.00 | 85 | 1011.4 |
| 20260510033905 | 79 | 107 | 10.0 | 13.0 | 0.00 | 0.00 | 0.00 | 85 | 1011.2 |
| 20260510033357 | 79 | 100 | 10.0 | 14.0 | 0.00 | 0.00 | 0.00 | 85 | 1011.0 |
| 20260510032843 | 79 | 95 | 11.0 | 14.0 | 0.00 | 0.00 | 0.00 | 85 | 1011.0 |
| 20260510032348 | 80 | 86 | 11.0 | 14.0 | 0.00 | 0.00 | 0.00 | 85 | 1010.9 |
| 20260510031847 | 80 | 101 | 9.0 | 14.0 | 0.00 | 0.00 | 0.00 | 85 | 1011.0 |
| 20260510031352 | 80 | 69 | 10.0 | 14.0 | 0.00 | 0.00 | 0.00 | 85 | 1011.1 |
| 20260510030855 | 80 | 100 | 10.0 | 14.0 | 0.00 | 0.00 | 0.00 | 84 | 1011.1 |
| 20260510030339 | 80 | 80 | 9.0 | 13.0 | 0.00 | 0.00 | 0.00 | 84 | 1011.0 |
| 20260510025836 | 80 | 86 | 8.0 | 14.0 | 0.00 | 0.00 | 0.00 | 84 | 1010.9 |
| 20260510024646 | 79 | 84 | 9.0 | 14.0 | 0.00 | 0.00 | 0.00 | 83 | 1010.5 |
| 20260510024125 | 79 | 85 | 7.0 | 12.0 | 0.00 | 0.00 | 0.00 | 83 | 1010.5 |
| 20260510023611 | 79 | 108 | 7.0 | 11.0 | 0.00 | 0.00 | 0.00 | 84 | 1010.3 |
| 20260510023114 | 79 | 117 | 8.0 | 12.0 | 0.00 | 0.00 | 0.00 | 84 | 1010.3 |
| 20260510022556 | 80 | 92 | 9.0 | 12.0 | 0.00 | 0.00 | 0.00 | 84 | 1010.2 |
| 20260510022035 | 80 | 103 | 9.0 | 12.0 | 0.00 | 0.00 | 0.00 | 84 | 1010.1 |
| 20260510021525 | 80 | 96 | 9.0 | 12.0 | 0.00 | 0.00 | 0.00 | 84 | 1010.0 |
| 20260510020417 | 79 | 73 | 5.0 | 9.0 | 0.00 | 0.00 | 0.00 | 84 | 1009.8 |
| 20260510015858 | 79 | 100 | 5.0 | 9.0 | 0.00 | 0.00 | 0.00 | 84 | 1009.8 |
| 20260510015355 | 79 | 89 | 3.0 | 9.0 | 0.00 | 0.00 | 0.00 | 84 | 1009.8 |
| 20260510014851 | 79 | 73 | 3.0 | 8.0 | 0.00 | 0.00 | 0.00 | 84 | 1009.5 |
| 20260510014335 | 79 | 184 | 5.0 | 8.0 | 0.00 | 0.00 | 0.00 | 84 | 1009.3 |
| 20260510013831 | 79 | 183 | 5.0 | 8.0 | 0.00 | 0.00 | 0.00 | 84 | 1009.0 |
| 20260510013328 | 79 | 132 | 5.0 | 8.0 | 0.00 | 0.00 | 0.00 | 84 | 1008.6 |
| 20260510012222 | 80 | 197 | 4.0 | 8.0 | 0.00 | 0.00 | 0.00 | 84 | 1008.3 |
| 20260510011714 | 80 | 164 | 4.0 | 11.0 | 0.00 | 0.00 | 0.00 | 84 | 1008.3 |
| 20260510011159 | 80 | 175 | 4.0 | 11.0 | 0.00 | 0.00 | 0.00 | 84 | 1008.4 |
| 20260510010705 | 80 | 171 | 6.0 | 11.0 | 0.00 | 0.00 | 0.00 | 83 | 1008.4 |
| 20260510010149 | 81 | 157 | 8.0 | 11.0 | 0.00 | 0.00 | 0.00 | 83 | 1008.3 |
| 20260510005633 | 81 | 166 | 7.0 | 10.0 | 0.00 | 0.00 | 0.00 | 83 | 1008.2 |
| 20260510005111 | 81 | 180 | 7.0 | 10.0 | 0.00 | 0.00 | 0.00 | 83 | 1008.2 |
| 20260510004611 | 81 | 160 | 7.0 | 10.0 | 0.00 | 0.00 | 0.00 | 82 | 1008.2 |
| 20260510004057 | 81 | 170 | 6.0 | 11.0 | 0.00 | 0.00 | 0.00 | 82 | 1008.3 |
| 20260510003553 | 81 | 140 | 6.0 | 11.0 | 0.00 | 0.00 | 0.00 | 82 | 1008.3 |
| 20260510003050 | 82 | 153 | 6.0 | 11.0 | 0.00 | 0.00 | 0.00 | 82 | 1008.2 |
| 20260510002544 | 82 | 157 | 6.0 | 11.0 | 0.00 | 0.00 | 0.00 | 82 | 1008.2 |
| 20260510002033 | 82 | 163 | 7.0 | 11.0 | 0.00 | 0.00 | 0.00 | 81 | 1008.2 |
| 20260510000846 | 82 | 171 | 7.0 | 12.0 | 0.00 | 0.00 | 0.00 | 81 | 1007.9 |
| 20260510000349 | 83 | 152 | 8.0 | 12.0 | 0.00 | 0.00 | 0.00 | 81 | 1007.9 |
| 20260509235856 | 83 | 157 | 8.0 | 12.0 | 0.00 | 0.00 | 0.00 | 81 | 1007.9 |
| 20260509235341 | 83 | 161 | 8.0 | 12.0 | 0.00 | 0.00 | 0.00 | 80 | 1008.1 |
| 20260509234838 | 83 | 125 | 7.0 | 12.0 | 0.00 | 0.00 | 0.00 | 80 | 1008.0 |
| 20260509234338 | 83 | 2 | 7.0 | 12.0 | 0.00 | 0.00 | 0.00 | 80 | 1008.0 |
| 20260509233833 | 83 | 2 | 8.0 | 13.0 | 0.00 | 0.00 | 0.00 | 79 | 1007.9 |
| 20260509232723 | 84 | 151 | 8.0 | 13.0 | 0.00 | 0.00 | 0.00 | 78 | 1008.1 |
| 20260509232211 | 85 | 117 | 7.0 | 13.0 | 0.00 | 0.00 | 0.00 | 77 | 1008.0 |
| 20260509231718 | 85 | 172 | 4.0 | 9.0 | 0.00 | 0.00 | 0.00 | 77 | 1008.0 |
| 20260509231208 | 85 | 231 | 3.0 | 8.0 | 0.00 | 0.00 | 0.00 | 77 | 1008.0 |
| 20260509230700 | 85 | 138 | 3.0 | 8.0 | 0.00 | 0.00 | 0.00 | 76 | 1008.0 |
| 20260509230145 | 86 | 101 | 4.0 | 8.0 | 0.00 | 0.00 | 0.00 | 75 | 1008.0 |
| 20260509223657 | 87 | 92 | 1.0 | 5.0 | 0.00 | 0.00 | 0.00 | 75 | 1007.6 |
| 20260509221910 | 87 | 136 | 4.0 | 8.0 | 0.00 | 0.00 | 0.00 | 74 | 1007.6 |
| 20260509220729 | 87 | 155 | 4.0 | 8.0 | 0.00 | 0.01 | 0.00 | 74 | 1007.4 |
| 20260509215540 | 87 | 157 | 2.0 | 5.0 | 0.00 | 0.01 | 0.00 | 75 | 1007.4 |
| 20260509215033 | 87 | 185 | 1.0 | 4.0 | 0.00 | 0.01 | 0.00 | 75 | 1007.4 |
| 20260509214534 | 87 | 193 | 0.0 | 3.0 | 0.00 | 0.01 | 0.00 | 76 | 1007.4 |
| 20260509214025 | 86 | 149 | 1.0 | 8.0 | 0.00 | 0.01 | 0.00 | 76 | 1007.5 |
| 20260509213512 | 86 | 107 | 3.0 | 8.0 | 0.00 | 0.01 | 0.00 | 77 | 1007.4 |
| 20260509212408 | 86 | 108 | 4.0 | 7.0 | 0.00 | 0.02 | 0.00 | 76 | 1007.4 |
| 20260509211904 | 86 | 106 | 3.0 | 5.0 | 0.00 | 0.02 | 0.00 | 77 | 1007.6 |
| 20260509211347 | 86 | 92 | 3.0 | 5.0 | 0.00 | 0.02 | 0.00 | 77 | 1007.7 |
| 20260509210832 | 86 | 96 | 4.0 | 5.0 | 0.00 | 0.02 | 0.00 | 77 | 1007.7 |
| 20260509210330 | 85 | 103 | 3.0 | 6.0 | 0.00 | 0.02 | 0.00 | 77 | 1007.7 |
| 20260509205827 | 85 | 105 | 2.0 | 6.0 | 0.00 | 0.02 | 0.00 | 78 | 1007.6 |
| 20260509205320 | 85 | 97 | 3.0 | 8.0 | 0.00 | 0.02 | 0.00 | 78 | 1007.5 |
| 20260509204814 | 85 | 111 | 5.0 | 8.0 | 0.00 | 0.02 | 0.00 | 77 | 1007.5 |
| 20260509204257 | 85 | 99 | 5.0 | 8.0 | 0.00 | 0.02 | 0.00 | 76 | 1007.6 |
| 20260509203750 | 86 | 125 | 5.0 | 8.0 | 0.00 | 0.02 | 0.00 | 76 | 1007.7 |
| 20260509203243 | 86 | 100 | 5.0 | 6.0 | 0.00 | 0.02 | 0.00 | 75 | 1007.6 |
| 20260509202746 | 86 | 100 | 4.0 | 6.0 | 0.00 | 0.02 | 0.00 | 74 | 1007.7 |
| 20260509202230 | 87 | 82 | 4.0 | 6.0 | 0.00 | 0.02 | 0.00 | 73 | 1007.6 |
| 20260509201729 | 87 | 115 | 2.0 | 6.0 | 0.00 | 0.02 | 0.00 | 73 | 1007.7 |
| 20260509201217 | 87 | 89 | 1.0 | 4.0 | 0.00 | 0.02 | 0.00 | 74 | 1007.7 |
| 20260509200708 | 87 | 200 | 1.0 | 4.0 | 0.00 | 0.02 | 0.00 | 75 | 1007.8 |
| 20260509200156 | 87 | 175 | 2.0 | 4.0 | 0.00 | 0.02 | 0.00 | 74 | 1007.8 |
| 20260509195636 | 87 | 169 | 1.0 | 4.0 | 0.00 | 0.02 | 0.00 | 74 | 1008.0 |
| 20260509195124 | 87 | 183 | 0.0 | 2.0 | 0.00 | 0.02 | 0.00 | 75 | 1008.1 |
| 20260509194624 | 87 | 111 | 0.0 | 1.0 | 0.00 | 0.02 | 0.00 | 76 | 1008.1 |